sat.trackr.live / text

‹ back to catalog

STARLINK-1122

NORAD 44949 · 2020-001AM

PAYLOAD ACTIVE UNKNOWN

§ Identity

Operator
Country
US
Launch date
2020-01-07
Launch site
AFETR
Launch vehicle
Mass (kg)
RCS (m²)

Purposes: comms

External: N2YO · Heavens-Above · Gunter

§ Orbital elements

Epoch: 2026-05-24T21:50:00.716064Z

Period
92.78 min
Inclination
53.1570°
Eccentricity
0.0002431
Mean motion
15.52028491 rev/d
Perigee alt
409.2 km
Apogee alt
412.5 km
Semi-major
6,788.9 km
B*
1.1118e-3
RAAN
321.0427°
Arg perigee
271.5341°
Mean anomaly
88.5391°
Rev number
35,196

§ Raw data

STARLINK-11221 44949U 20001AM  26144.90973051  .00068248  00000+0  11118-2 0  99952 44949  53.1570 321.0427 0002431 271.5341  88.5391 15.52028491351960

JSON: /api/v1/satellites/44949 · /tle

For live sub-satellite position, see the globe view (requires WebGL).

§ Visibility from observer

Set your observer location to see the next 7 days of passes ≥ 10°. The values pass through the URL so the page stays shareable.

No JS? Fill the form by hand. The geolocation button needs JavaScript.